TimePDT,TemperatureF,Dew PointF,Humidity,Sea Level PressureIn,VisibilityMPH,Wind Direction,Wind SpeedMPH,Gust SpeedMPH,PrecipitationIn,Events,Conditions,WindDirDegrees,DateUTC
12:53 AM,54.0,50.0,86,29.95,10.0,Calm,Calm,-,N/A,,Clear,0,2013-06-12 07:53:00
1:53 AM,53.1,50.0,89,29.95,10.0,Calm,Calm,-,N/A,,Clear,0,2013-06-12 08:53:00
2:53 AM,50.0,48.0,93,29.95,10.0,Calm,Calm,-,N/A,,Clear,0,2013-06-12 09:53:00
3:53 AM,51.1,48.0,89,29.94,10.0,Calm,Calm,-,N/A,,Clear,0,2013-06-12 10:53:00
4:39 AM,50.0,46.4,87,29.95,10.0,Calm,Calm,-,N/A,,Scattered Clouds,0,2013-06-12 11:39:00
4:43 AM,50.0,46.4,87,29.95,10.0,Calm,Calm,-,N/A,,Mostly Cloudy,0,2013-06-12 11:43:00
4:53 AM,51.1,48.0,89,29.95,10.0,Calm,Calm,-,N/A,,Mostly Cloudy,0,2013-06-12 11:53:00
5:30 AM,53.6,51.8,94,29.96,1.5,Calm,Calm,-,N/A,,Overcast,0,2013-06-12 12:30:00
5:34 AM,51.8,51.8,100,29.96,0.8,Calm,Calm,-,N/A,,Overcast,0,2013-06-12 12:34:00
5:43 AM,51.8,50.0,94,29.96,1.5,Calm,Calm,-,N/A,,Overcast,0,2013-06-12 12:43:00
5:45 AM,51.8,50.0,94,29.96,3.0,Calm,Calm,-,N/A,,Overcast,0,2013-06-12 12:45:00
5:53 AM,51.1,50.0,96,29.96,2.0,Calm,Calm,-,N/A,,Overcast,0,2013-06-12 12:53:00
5:59 AM,51.8,50.0,94,29.96,1.2,Calm,Calm,-,N/A,,Overcast,0,2013-06-12 12:59:00
6:10 AM,51.8,51.8,100,29.97,0.8,Calm,Calm,-,N/A,,Mist,0,2013-06-12 13:10:00
6:28 AM,51.8,51.8,100,29.97,0.2,Calm,Calm,-,N/A,Fog,Fog,0,2013-06-12 13:28:00
6:53 AM,52.0,51.1,97,29.98,0.5,Calm,Calm,-,N/A,Fog,Fog,0,2013-06-12 13:53:00
7:53 AM,52.0,51.1,97,29.98,0.8,Calm,Calm,-,N/A,,Mist,0,2013-06-12 14:53:00
8:12 AM,53.6,51.8,94,29.98,1.2,Calm,Calm,-,N/A,,Overcast,0,2013-06-12 15:12:00
8:17 AM,53.6,51.8,94,29.98,2.0,Calm,Calm,-,N/A,,Overcast,0,2013-06-12 15:17:00
8:37 AM,53.6,51.8,94,29.99,6.0,Calm,Calm,-,N/A,,Overcast,0,2013-06-12 15:37:00
8:53 AM,54.0,52.0,93,29.99,9.0,Calm,Calm,-,N/A,,Overcast,0,2013-06-12 15:53:00
9:12 AM,59.0,51.8,77,29.99,10.0,Calm,Calm,-,N/A,,Overcast,0,2013-06-12 16:12:00
9:45 AM,59.0,51.8,77,30.00,10.0,Variable,3.5,-,N/A,,Mostly Cloudy,0,2013-06-12 16:45:00
9:53 AM,60.1,52.0,75,30.00,10.0,WNW,3.5,-,N/A,,Scattered Clouds,290,2013-06-12 16:53:00
10:53 AM,64.0,53.1,67,30.00,10.0,South,5.8,-,N/A,,Clear,170,2013-06-12 17:53:00
11:53 AM,68.0,52.0,56,30.01,10.0,South,9.2,-,N/A,,Clear,170,2013-06-12 18:53:00
12:53 PM,69.1,52.0,54,30.00,10.0,South,6.9,-,N/A,,Clear,180,2013-06-12 19:53:00
1:53 PM,71.1,51.1,49,30.00,10.0,SE,8.1,-,N/A,,Clear,140,2013-06-12 20:53:00
2:53 PM,71.1,48.9,45,29.99,10.0,ESE,9.2,-,N/A,,Clear,120,2013-06-12 21:53:00
3:53 PM,70.0,50.0,49,29.99,10.0,ESE,10.4,-,N/A,,Clear,120,2013-06-12 22:53:00
4:53 PM,69.1,50.0,51,29.99,10.0,ESE,6.9,-,N/A,,Clear,120,2013-06-12 23:53:00
5:53 PM,69.1,48.9,49,29.99,10.0,SE,8.1,-,N/A,,Clear,140,2013-06-13 00:53:00
6:53 PM,66.0,48.9,54,29.99,10.0,SE,5.8,-,N/A,,Clear,130,2013-06-13 01:53:00
7:53 PM,63.0,48.9,60,30.01,10.0,ESE,6.9,-,N/A,,Clear,110,2013-06-13 02:53:00
8:53 PM,59.0,48.9,69,30.02,10.0,East,6.9,-,N/A,,Clear,90,2013-06-13 03:53:00
9:53 PM,55.9,48.0,75,30.04,10.0,NE,5.8,-,N/A,,Clear,50,2013-06-13 04:53:00
10:53 PM,54.0,48.0,80,30.05,10.0,NE,5.8,-,N/A,,Clear,50,2013-06-13 05:53:00
11:53 PM,53.1,46.9,80,30.05,10.0,NE,5.8,-,N/A,,Clear,40,2013-06-13 06:53:00